,,Stat6,,Stat2,,Stat8,,Stat9,,Stat10,,Wind1,,Wind1,
time,status,PA1M_AVG,status,PR1M_SUM,status,RH1M_AVG,status,SR1M_AVG,status,TA1M_AVG,status,W1dAve1m,status,W1sAve1m,
2006-05-22, 00:00:00,VALID,918.686,VALID,0,VALID,79.535,VALID,-0.135847,INVALID,0,VALID,88,VALID,0.209635,
2006-05-22, 00:01:00,VALID,918.666,VALID,0,VALID,79.3761,VALID,-0.713195,VALID,-0.0016,VALID,88,VALID,0.0870276,
2006-05-22, 00:02:00,VALID,918.664,VALID,0,VALID,79.1599,VALID,-0.115724,INVALID,0,VALID,89,VALID,0,
2006-05-22, 00:03:00,VALID,918.643,VALID,0,VALID,78.9552,VALID,0.0849042,VALID,-0.0016,VALID,89,VALID,0.0504092,
2006-05-22, 00:04:00,VALID,918.624,VALID,0,VALID,78.9577,VALID,0.0169808,VALID,-0.0016,VALID,89,VALID,0.249653,
2006-05-22, 00:05:00,VALID,918.608,VALID,0,VALID,78.9043,VALID,0.0169808,VALID,-0.0016,VALID,89,VALID,0.309411,
2006-05-22, 00:06:00,VALID,918.587,VALID,0,VALID,79.0277,VALID,0,VALID,-0.0016,VALID,89,VALID,0.237995,
2006-05-22, 00:07:00,VALID,918.568,VALID,0,VALID,79.1854,VALID,-0.0679233,INVALID,0,VALID,91,VALID,0.344494,
2006-05-22, 00:08:00,VALID,918.549,VALID,0,VALID,79.3341,VALID,0.0339617,VALID,-0.0016,VALID,97,VALID,0.440044,
2006-05-22, 00:09:00,VALID,918.529,VALID,0,VALID,79.3354,VALID,0,VALID,-0.0016,VALID,125,VALID,0.367733,
2006-05-22, 00:10:00,VALID,918.508,VALID,0,VALID,79.2934,VALID,0.0169808,VALID,-0.0016,VALID,133,VALID,0.291969,
2006-05-22, 00:11:00,VALID,918.488,VALID,0,VALID,79.3074,VALID,0.0509425,VALID,-0.0016,VALID,150,VALID,0.616279,
2006-05-22, 00:12:00,VALID,918.483,VALID,0,VALID,79.2833,VALID,-0.101885,INVALID,0,VALID,156,VALID,0.825586,
2006-05-22, 00:13:00,VALID,918.458,VALID,0,VALID,79.193,VALID,-0.183647,VALID,-0.0016,VALID,151,VALID,0.690696,
2006-05-22, 00:14:00,VALID,918.448,VALID,0,VALID,79.1714,VALID,-0.0339617,INVALID,0,VALID,150,VALID,0.239211,
2006-05-22, 00:15:00,VALID,918.438,VALID,0,VALID,79.2222,VALID,0.0169808,INVALID,0,VALID,150,VALID,0.00223214,
2006-05-22, 00:16:00,VALID,918.433,VALID,0,VALID,79.1523,VALID,0.0339617,VALID,-0.0016,VALID,150,VALID,0,
2006-05-22, 00:17:00,VALID,918.411,VALID,0,VALID,79.1714,VALID,0.00314164,VALID,-0.0016,VALID,150,VALID,0.044837,
2006-05-22, 00:18:00,VALID,918.391,VALID,0,VALID,79.0328,VALID,-0.577348,INVALID,0,VALID,104,VALID,0.479102,
2006-05-22, 00:19:00,VALID,918.376,VALID,0,VALID,78.9132,VALID,0.0849042,VALID,-0.0016,VALID,65,VALID,0.72154,
2006-05-22, 00:20:00,VALID,918.372,VALID,0,VALID,78.828,VALID,0.0169808,INVALID,0,VALID,53,VALID,0.689215,
2006-05-22, 00:21:00,VALID,918.367,VALID,0,VALID,78.884,VALID,0.0509425,INVALID,0,VALID,49,VALID,0.845022,
2006-05-22, 00:22:00,VALID,918.348,VALID,0,VALID,79.1917,VALID,0.0509425,INVALID,0,VALID,49,VALID,0.854688,
2006-05-22, 00:23:00,VALID,918.342,VALID,0,VALID,79.4905,VALID,0.0679233,INVALID,0,VALID,49,VALID,0.792111,
2006-05-22, 00:24:00,VALID,918.338,VALID,0,VALID,79.7792,VALID,0,INVALID,0,VALID,49,VALID,0.718178,
2006-05-22, 00:25:00,VALID,918.328,VALID,0,VALID,79.9127,VALID,0.61131,INVALID,0,VALID,49,VALID,0.540879,
2006-05-22, 00:26:00,VALID,918.326,VALID,0,VALID,79.755,VALID,-0.0339617,VALID,-0.0016,VALID,49,VALID,0.285065,
2006-05-22, 00:27:00,VALID,918.311,VALID,0,VALID,79.4867,VALID,0,INVALID,0,VALID,49,VALID,0.177871,
2006-05-22, 00:28:00,VALID,918.3,VALID,0,VALID,79.5274,VALID,0,INVALID,0,VALID,50,VALID,0.34189,
2006-05-22, 00:29:00,VALID,918.27,VALID,0,VALID,79.5249,VALID,0,VALID,-0.0016,VALID,135,VALID,0.616122,
2006-05-22, 00:30:00,VALID,918.258,VALID,0,VALID,79.4842,VALID,0,VALID,-0.0016,VALID,148,VALID,0.68285,
2006-05-22, 00:31:00,VALID,918.238,VALID,0,VALID,79.5681,VALID,0,INVALID,0,VALID,146,VALID,0.579215,
2006-05-22, 00:32:00,VALID,918.206,VALID,0,VALID,79.8135,VALID,0,INVALID,0,VALID,142,VALID,0.610085,
2006-05-22, 00:33:00,VALID,918.194,VALID,0,VALID,80.1429,VALID,0,VALID,-0.0016,VALID,130,VALID,0.575648,
2006-05-22, 00:34:00,VALID,918.175,VALID,0,VALID,80.1543,VALID,0,INVALID,0,VALID,130,VALID,0.412584,
2006-05-22, 00:35:00,VALID,918.146,VALID,0,VALID,80.3362,VALID,-0.0169808,VALID,-0.0016,VALID,129,VALID,0.443229,
2006-05-22, 00:36:00,VALID,918.143,VALID,0,VALID,80.4214,VALID,-0.0339617,VALID,-0.0016,VALID,129,VALID,0.415234,
2006-05-22, 00:37:00,VALID,918.129,VALID,0,VALID,80.49,VALID,0,INVALID,0,VALID,129,VALID,0.209162,
2006-05-22, 00:38:00,VALID,918.131,VALID,0,VALID,80.4239,VALID,-0.0169808,INVALID,0,VALID,129,VALID,0.0377604,
2006-05-22, 00:39:00,VALID,918.137,VALID,0,VALID,80.4036,VALID,0,VALID,-0.0016,VALID,130,VALID,0.299805,
2006-05-22, 00:40:00,VALID,918.134,VALID,0,VALID,80.3997,VALID,-0.0169808,VALID,-0.0016,VALID,130,VALID,0.556055,
2006-05-22, 00:41:00,VALID,918.138,VALID,0,VALID,80.2917,VALID,0,INVALID,0,VALID,136,VALID,0.689098,
2006-05-22, 00:42:00,VALID,918.131,VALID,0,VALID,80.2993,VALID,0,VALID,-0.0016,VALID,138,VALID,0.728423,
2006-05-22, 00:43:00,VALID,918.115,VALID,0,VALID,80.3769,VALID,0,VALID,-0.0016,VALID,136,VALID,0.727242,
2006-05-22, 00:44:00,VALID,918.125,VALID,0,VALID,80.518,VALID,0,VALID,-0.0016,VALID,134,VALID,0.523633,
2006-05-22, 00:45:00,VALID,918.127,VALID,0,VALID,80.6096,VALID,0,VALID,-0.0016,VALID,130,VALID,0.278472,
2006-05-22, 00:46:00,VALID,918.125,VALID,0,VALID,80.6744,VALID,-0.0169808,VALID,-0.0016,VALID,130,VALID,0.25071,
2006-05-22, 00:47:00,VALID,918.12,VALID,0,VALID,80.6744,VALID,-0.0169808,VALID,-0.0016,VALID,124,VALID,0.323401,
2006-05-22, 00:48:00,VALID,918.113,VALID,0,VALID,80.6909,VALID,-0.0169808,INVALID,0,VALID,98,VALID,0.433966,
2006-05-22, 00:49:00,VALID,918.101,VALID,0,VALID,80.7164,VALID,0,VALID,-0.0016,VALID,95,VALID,0.37779,
2006-05-22, 00:50:00,VALID,918.093,VALID,0,VALID,80.6172,VALID,0,INVALID,0,VALID,84,VALID,0.52907,
2006-05-22, 00:51:00,VALID,918.09,VALID,0,VALID,80.5523,VALID,0,VALID,-0.0016,VALID,69,VALID,0.637005,
2006-05-22, 00:52:00,VALID,918.084,VALID,0,VALID,80.5294,VALID,-0.0339617,VALID,-0.0016,VALID,65,VALID,0.595982,
2006-05-22, 00:53:00,VALID,918.079,VALID,0,VALID,80.4748,VALID,0,VALID,-0.0016,VALID,62,VALID,0.600446,
2006-05-22, 00:54:00,VALID,918.088,VALID,0,VALID,80.5155,VALID,0,VALID,-0.0016,VALID,56,VALID,0.472656,
2006-05-22, 00:55:00,VALID,918.084,VALID,0,VALID,80.4544,VALID,0,VALID,-0.0016,VALID,55,VALID,0.610283,
2006-05-22, 00:56:00,VALID,918.085,VALID,0,VALID,80.3807,VALID,0.0169808,INVALID,0,VALID,54,VALID,0.549293,
2006-05-22, 00:57:00,VALID,918.06,VALID,0,VALID,80.4748,VALID,-0.101885,VALID,-0.0016,VALID,38,VALID,0.610863,
2006-05-22, 00:58:00,VALID,918.053,VALID,0,VALID,80.4989,VALID,0,VALID,-0.0016,VALID,30,VALID,0.571378,
2006-05-22, 00:59:00,VALID,918.041,VALID,0,VALID,80.4442,VALID,0,INVALID,0,VALID,30,VALID,0.50686,
2006-05-22, 01:00:00,VALID,918.015,VALID,0,VALID,80.3565,VALID,0,INVALID,0,VALID,30,VALID,0.403274,
2006-05-22, 01:01:00,VALID,917.994,VALID,0,VALID,80.2942,VALID,0,VALID,-0.0016,VALID,30,VALID,0.195486,
2006-05-22, 01:02:00,VALID,917.996,VALID,0,VALID,80.2789,VALID,-0.20377,INVALID,0,VALID,30,VALID,0.00260417,
2006-05-22, 01:03:00,VALID,917.981,VALID,0,VALID,80.223,VALID,-0.509425,INVALID,0,VALID,26,VALID,0.0146949,
2006-05-22, 01:04:00,VALID,917.973,VALID,0,VALID,80.0946,VALID,-0.0169808,INVALID,0,VALID,235,VALID,0.462462,
2006-05-22, 01:05:00,VALID,917.965,VALID,0,VALID,80.1098,VALID,0.356597,INVALID,0,VALID,236,VALID,0.331032,
2006-05-22, 01:06:00,VALID,917.969,VALID,0,VALID,80.0094,VALID,1.81695,INVALID,0,VALID,237,VALID,0.1121,
2006-05-22, 01:07:00,VALID,917.949,VALID,0,VALID,79.886,VALID,0,VALID,-0.0016,VALID,237,VALID,0.0290179,
2006-05-22, 01:08:00,VALID,917.941,VALID,0,VALID,79.7868,VALID,0,INVALID,0,VALID,237,VALID,0,
2006-05-22, 01:09:00,VALID,917.918,VALID,0,VALID,79.7627,VALID,0.0169808,INVALID,0,VALID,237,VALID,0.000173611,
2006-05-22, 01:10:00,VALID,917.9,VALID,0,VALID,79.6063,VALID,0.0339617,INVALID,0,VALID,237,VALID,0.237233,
2006-05-22, 01:11:00,VALID,917.871,VALID,0,VALID,79.4804,VALID,0,VALID,-0.0016,VALID,237,VALID,0.0662287,
2006-05-22, 01:12:00,VALID,917.864,VALID,0,VALID,79.5274,VALID,0,VALID,-0.0016,VALID,237,VALID,0.0433084,
2006-05-22, 01:13:00,VALID,917.845,VALID,0,VALID,79.5096,VALID,0,VALID,-0.0016,VALID,237,VALID,0,
2006-05-22, 01:14:00,VALID,917.835,VALID,0,VALID,79.3939,VALID,0,INVALID,0,VALID,237,VALID,0,
2006-05-22, 01:15:00,VALID,917.811,VALID,0,VALID,79.4117,VALID,0,VALID,-0.0016,VALID,237,VALID,0.0142045,
2006-05-22, 01:16:00,VALID,917.794,VALID,0,VALID,79.2845,VALID,0,VALID,-0.0016,VALID,237,VALID,0,
2006-05-22, 01:17:00,VALID,917.778,VALID,0,VALID,79.1879,VALID,0.0169808,VALID,-0.0016,VALID,237,VALID,0,
2006-05-22, 01:18:00,VALID,917.755,VALID,0,VALID,79.1714,VALID,0.0169808,INVALID,0,VALID,237,VALID,0.0227108,
2006-05-22, 01:19:00,VALID,917.734,VALID,0,VALID,79.0378,VALID,0,VALID,-0.0016,VALID,237,VALID,0.227121,
2006-05-22, 01:20:00,VALID,917.714,VALID,0,VALID,79.0646,VALID,0,VALID,-0.0016,VALID,237,VALID,0.175037,
2006-05-22, 01:21:00,VALID,917.697,VALID,0,VALID,79.0709,VALID,0,VALID,-0.0016,VALID,237,VALID,0.00555556,
2006-05-22, 01:22:00,VALID,917.685,VALID,0,VALID,79.1256,VALID,0.0169808,INVALID,0,VALID,237,VALID,0.000558036,
2006-05-22, 01:23:00,VALID,917.689,VALID,0,VALID,79.1612,VALID,0.0169808,INVALID,0,VALID,237,VALID,0.0578497,
2006-05-22, 01:24:00,VALID,917.687,VALID,0,VALID,79.1167,VALID,0,INVALID,0,VALID,237,VALID,0.200462,
2006-05-22, 01:25:00,VALID,917.697,VALID,0,VALID,78.9234,VALID,0,VALID,-0.0016,VALID,237,VALID,0.103659,
2006-05-22, 01:26:00,VALID,917.701,VALID,0,VALID,78.8764,VALID,0,VALID,-0.0016,VALID,237,VALID,0.10119,
2006-05-22, 01:27:00,VALID,917.693,VALID,0,VALID,78.767,VALID,0,VALID,-0.0016,VALID,237,VALID,0.0888672,
2006-05-22, 01:28:00,VALID,917.68,VALID,0,VALID,78.7479,VALID,0,VALID,-0.0016,VALID,237,VALID,0.000205592,
2006-05-22, 01:29:00,VALID,917.677,VALID,0,VALID,78.7428,VALID,0,VALID,-0.0016,VALID,237,VALID,0.0530134,
2006-05-22, 01:30:00,VALID,917.673,VALID,0,VALID,78.617,VALID,0,VALID,20.2619,VALID,237,VALID,0,
2006-05-22, 01:31:00,VALID,917.664,VALID,0,VALID,78.4644,VALID,-0.333333,VALID,20.106,VALID,237,VALID,0.00109012,
2006-05-22, 01:32:00,VALID,917.661,VALID,0,VALID,78.4911,VALID,-0.214468,VALID,19.049,VALID,237,VALID,0.277435,
2006-05-22, 01:33:00,VALID,917.644,VALID,0,VALID,78.3308,VALID,0.0232641,VALID,18.8684,VALID,237,VALID,0.225,
2006-05-22, 01:34:00,VALID,917.631,VALID,0,VALID,78.3995,VALID,-0.166667,VALID,21.3187,VALID,237,VALID,0.0432413,
2006-05-22, 01:35:00,VALID,917.607,VALID,0,VALID,78.5012,VALID,-0.166667,VALID,18.7922,VALID,237,VALID,0,
2006-05-22, 01:36:00,VALID,917.599,VALID,0,VALID,78.6208,VALID,0,VALID,20.4732,VALID,237,VALID,0,
2006-05-22, 01:37:00,VALID,917.557,VALID,0,VALID,78.7772,VALID,0,VALID,-0.0016,VALID,237,VALID,0.00104167,
2006-05-22, 01:38:00,VALID,917.539,VALID,0,VALID,78.7543,VALID,0,VALID,-0.0016,VALID,237,VALID,0,
2006-05-22, 01:39:00,VALID,917.511,VALID,0,VALID,78.5674,VALID,0,VALID,-0.0016,VALID,237,VALID,0,
2006-05-22, 01:40:00,VALID,917.486,VALID,0,VALID,78.6856,VALID,0,VALID,-0.0016,VALID,237,VALID,0,
2006-05-22, 01:41:00,VALID,917.469,VALID,0,VALID,78.828,VALID,0,VALID,-0.0016,VALID,237,VALID,0,
2006-05-22, 01:42:00,VALID,917.446,VALID,0,VALID,78.9641,VALID,0,INVALID,0,VALID,237,VALID,0,
2006-05-22, 01:43:00,VALID,917.435,VALID,0,VALID,79.1993,VALID,0,VALID,-0.0016,VALID,236,VALID,0.167111,
2006-05-22, 01:44:00,VALID,917.411,VALID,0,VALID,79.338,VALID,0,INVALID,0,VALID,184,VALID,0.212391,
2006-05-22, 01:45:00,VALID,917.41,VALID,0,VALID,79.5096,VALID,0,INVALID,0,VALID,183,VALID,0.345567,
2006-05-22, 01:46:00,VALID,917.407,VALID,0,VALID,79.6406,VALID,0,VALID,-0.0016,VALID,183,VALID,0.258594,
2006-05-22, 01:47:00,VALID,917.399,VALID,0,VALID,79.8746,VALID,0,VALID,-0.0016,VALID,183,VALID,0.199574,
2006-05-22, 01:48:00,VALID,917.399,VALID,0,VALID,80.0068,VALID,0,VALID,-0.0016,VALID,183,VALID,0.361555,
2006-05-22, 01:49:00,VALID,917.393,VALID,0,VALID,80.0475,VALID,0,VALID,-0.0016,VALID,179,VALID,0.375,
2006-05-22, 01:50:00,VALID,917.391,VALID,0,VALID,79.9,VALID,0,VALID,-0.0016,VALID,161,VALID,0.395312,
2006-05-22, 01:51:00,VALID,917.389,VALID,0,VALID,79.8262,VALID,0,VALID,-0.0016,VALID,118,VALID,0.42207,
2006-05-22, 01:52:00,VALID,917.367,VALID,0,VALID,79.9661,VALID,0,VALID,-0.0016,VALID,118,VALID,0.24782,
2006-05-22, 01:53:00,VALID,917.371,VALID,0,VALID,80.1594,VALID,0,INVALID,0,VALID,118,VALID,0.081936,
2006-05-22, 01:54:00,VALID,917.357,VALID,0,VALID,80.2611,VALID,0,INVALID,0,VALID,118,VALID,0.009375,
2006-05-22, 01:55:00,VALID,917.347,VALID,0,VALID,80.3222,VALID,0,VALID,-0.0016,VALID,118,VALID,0,
2006-05-22, 01:56:00,VALID,917.341,VALID,0,VALID,80.3743,VALID,0,INVALID,0,VALID,118,VALID,0,
2006-05-22, 01:57:00,VALID,917.343,VALID,0,VALID,80.4239,VALID,-0.0169808,INVALID,0,VALID,118,VALID,0,
2006-05-22, 01:58:00,VALID,917.333,VALID,0,VALID,80.4226,VALID,-0.0339617,INVALID,0,VALID,118,VALID,0,
2006-05-22, 01:59:00,VALID,917.332,VALID,0,VALID,80.4252,VALID,-0.0169808,VALID,-0.0016,VALID,118,VALID,0,
2006-05-22, 02:00:00,VALID,917.33,VALID,0,VALID,80.4519,VALID,0,VALID,-0.0016,VALID,118,VALID,0,
2006-05-22, 02:01:00,VALID,917.33,VALID,0,VALID,80.4824,VALID,0,VALID,-0.0016,VALID,118,VALID,0,
2006-05-22, 02:02:00,VALID,917.325,VALID,0,VALID,80.3858,VALID,0,VALID,-0.0016,VALID,118,VALID,0,
2006-05-22, 02:03:00,VALID,917.329,VALID,0,VALID,80.2955,VALID,0,INVALID,0,VALID,118,VALID,0,
2006-05-22, 02:04:00,VALID,917.329,VALID,0,VALID,80.2293,VALID,0.0169808,INVALID,0,VALID,118,VALID,0,
2006-05-22, 02:05:00,VALID,917.328,VALID,0,VALID,80.1874,VALID,0.0679233,VALID,-0.0016,VALID,118,VALID,0,
2006-05-22, 02:06:00,VALID,917.322,VALID,0,VALID,80.1251,VALID,0,VALID,-0.0016,VALID,118,VALID,0,
2006-05-22, 02:07:00,VALID,917.34,VALID,0,VALID,80.0971,VALID,0,VALID,-0.0016,VALID,118,VALID,0.00416667,
2006-05-22, 02:08:00,VALID,917.357,VALID,0,VALID,80.0513,VALID,0,VALID,-0.0016,VALID,118,VALID,0.0324219,
2006-05-22, 02:09:00,VALID,917.364,VALID,0,VALID,80.0144,VALID,0,VALID,-0.0016,VALID,118,VALID,0.0625,
2006-05-22, 02:10:00,VALID,917.374,VALID,0,VALID,80.003,VALID,0,VALID,-0.0016,VALID,118,VALID,0.015625,
2006-05-22, 02:11:00,VALID,917.381,VALID,0,VALID,80.0297,VALID,0,VALID,-0.0016,VALID,118,VALID,0.0494186,
2006-05-22, 02:12:00,VALID,917.371,VALID,0,VALID,80.017,VALID,0,VALID,-0.0016,VALID,81,VALID,0.342416,
2006-05-22, 02:13:00,VALID,917.368,VALID,0,VALID,79.9458,VALID,0,INVALID,0,VALID,54,VALID,0.17569,
2006-05-22, 02:14:00,VALID,917.356,VALID,0,VALID,79.8949,VALID,0.0169808,INVALID,0,VALID,54,VALID,0.00186012,
2006-05-22, 02:15:00,VALID,917.356,VALID,0,VALID,79.8161,VALID,0,VALID,-0.0016,VALID,54,VALID,0,
2006-05-22, 02:16:00,VALID,917.361,VALID,0,VALID,79.9318,VALID,0,INVALID,0,VALID,54,VALID,0,
2006-05-22, 02:17:00,VALID,917.35,VALID,0,VALID,79.9623,VALID,0.0169808,VALID,20.3712,VALID,54,VALID,0,
2006-05-22, 02:18:00,VALID,917.344,VALID,0,VALID,79.9954,VALID,0,VALID,23.4284,VALID,54,VALID,0.0365189,
2006-05-22, 02:19:00,VALID,917.338,VALID,0,VALID,79.9381,VALID,0,INVALID,0,VALID,54,VALID,0.00545058,
2006-05-22, 02:20:00,VALID,917.332,VALID,0,VALID,79.914,VALID,0,INVALID,0,VALID,54,VALID,0.00114329,
2006-05-22, 02:21:00,VALID,917.325,VALID,0,VALID,79.7474,VALID,0,INVALID,0,VALID,54,VALID,0.00208333,
2006-05-22, 02:22:00,VALID,917.308,VALID,0,VALID,79.6444,VALID,0,VALID,20.4057,VALID,54,VALID,0,
2006-05-22, 02:23:00,VALID,917.303,VALID,0,VALID,79.5757,VALID,-0.0169808,VALID,20.7928,VALID,54,VALID,0,
2006-05-22, 02:24:00,VALID,917.286,VALID,0,VALID,79.4422,VALID,-0.0509425,VALID,24.2589,VALID,54,VALID,0.00208333,
2006-05-22, 02:25:00,VALID,917.278,VALID,0,VALID,79.3977,VALID,0.0169808,VALID,22.0138,VALID,54,VALID,0.0727307,
2006-05-22, 02:26:00,VALID,917.27,VALID,0,VALID,79.3914,VALID,0.0339617,VALID,20.8177,VALID,54,VALID,0.170967,
2006-05-22, 02:27:00,VALID,917.261,VALID,0,VALID,79.5045,VALID,0.0169808,INVALID,0,VALID,52,VALID,0.14974,
2006-05-22, 02:28:00,VALID,917.242,VALID,0,VALID,79.516,VALID,-0.0849042,INVALID,0,VALID,52,VALID,0.00228659,
2006-05-22, 02:29:00,VALID,917.232,VALID,0,VALID,79.385,VALID,0,INVALID,0,VALID,52,VALID,0,
2006-05-22, 02:30:00,VALID,917.215,VALID,0,VALID,79.4359,VALID,-0.0169808,INVALID,0,VALID,52,VALID,0.000952744,
2006-05-22, 02:31:00,VALID,917.196,VALID,0,VALID,79.5986,VALID,0,INVALID,0,VALID,52,VALID,0.111852,
2006-05-22, 02:32:00,VALID,917.195,VALID,0,VALID,79.8695,VALID,0,INVALID,0,VALID,50,VALID,0.0812137,
2006-05-22, 02:33:00,VALID,917.182,VALID,0,VALID,79.9318,VALID,0,INVALID,0,VALID,16,VALID,0.34392,
2006-05-22, 02:34:00,VALID,917.185,VALID,0,VALID,79.9712,VALID,0.0849042,INVALID,0,VALID,360,VALID,0.298363,
2006-05-22, 02:35:00,VALID,917.197,VALID,0,VALID,79.6648,VALID,-0.0169808,INVALID,0,VALID,358,VALID,0.323219,
2006-05-22, 02:36:00,VALID,917.194,VALID,0,VALID,79.8936,VALID,-0.0169808,VALID,-0.0016,VALID,358,VALID,0.198401,
2006-05-22, 02:37:00,VALID,917.189,VALID,0,VALID,79.9776,VALID,-0.0169808,VALID,-0.0016,VALID,358,VALID,0.152431,
2006-05-22, 02:38:00,VALID,917.158,VALID,0,VALID,80.0132,VALID,-0.0169808,INVALID,0,VALID,358,VALID,0.0394436,
2006-05-22, 02:39:00,VALID,917.144,VALID,0,VALID,79.9432,VALID,-0.0169808,INVALID,0,VALID,358,VALID,0.166295,
2006-05-22, 02:40:00,VALID,917.129,VALID,0,VALID,79.7233,VALID,0.0169808,VALID,-0.0016,VALID,358,VALID,0.0472301,
2006-05-22, 02:41:00,VALID,917.128,VALID,0,VALID,79.8212,VALID,0,VALID,-0.0016,VALID,358,VALID,0.411086,
2006-05-22, 02:42:00,VALID,917.123,VALID,0,VALID,80.003,VALID,0.0169808,VALID,-0.0016,VALID,2,VALID,0.497638,
2006-05-22, 02:43:00,VALID,917.126,VALID,0,VALID,80.1543,VALID,0.0169808,VALID,-0.0016,VALID,22,VALID,0.675781,
2006-05-22, 02:44:00,VALID,917.109,VALID,0,VALID,80.1887,VALID,0,VALID,-3.17838,VALID,24,VALID,0.550114,
2006-05-22, 02:45:00,VALID,917.112,VALID,0,VALID,80.368,VALID,0.0169808,VALID,-0.0016,VALID,35,VALID,0.402798,
2006-05-22, 02:46:00,VALID,917.13,VALID,0,VALID,80.4722,VALID,0.0169808,VALID,-0.0016,VALID,35,VALID,0.330305,
2006-05-22, 02:47:00,VALID,917.125,VALID,0,VALID,80.5701,VALID,0.0169808,VALID,-0.0016,VALID,35,VALID,0.325639,
2006-05-22, 02:48:00,VALID,917.13,VALID,0,VALID,80.6363,VALID,0.0339617,INVALID,0,VALID,35,VALID,0.397711,
2006-05-22, 02:49:00,VALID,917.116,VALID,0,VALID,80.6375,VALID,0,INVALID,0,VALID,55,VALID,0.486328,
2006-05-22, 02:50:00,VALID,917.11,VALID,0,VALID,80.6897,VALID,0,INVALID,0,VALID,58,VALID,0.358203,
2006-05-22, 02:51:00,VALID,917.1,VALID,0,VALID,80.738,VALID,0.0339617,VALID,-0.0016,VALID,60,VALID,0.326601,
2006-05-22, 02:52:00,VALID,917.089,VALID,0,VALID,80.8868,VALID,0.0169808,INVALID,0,VALID,60,VALID,0.256669,
2006-05-22, 02:53:00,VALID,917.08,VALID,0,VALID,81.0012,VALID,-0.0679233,INVALID,0,VALID,60,VALID,0.144622,
2006-05-22, 02:54:00,VALID,917.078,VALID,0,VALID,81.0953,VALID,0.101885,VALID,-0.0016,VALID,60,VALID,0.0913881,
2006-05-22, 02:55:00,VALID,917.078,VALID,0,VALID,81.0686,VALID,0.0849042,INVALID,0,VALID,60,VALID,0.00208333,
2006-05-22, 02:56:00,VALID,917.062,VALID,0,VALID,86.1309,VALID,0.0169808,INVALID,0,VALID,60,VALID,0.000976563,
2006-05-22, 02:57:00,VALID,917.065,VALID,0,VALID,80.9376,VALID,0.0679233,VALID,-0.0016,VALID,60,VALID,0.00457317,
2006-05-22, 02:58:00,VALID,917.034,VALID,0,VALID,80.8613,VALID,-0.0169808,VALID,-0.0016,VALID,60,VALID,0.145139,
2006-05-22, 02:59:00,VALID,917.027,VALID,0,VALID,80.7787,VALID,-0.0169808,VALID,-0.0016,VALID,60,VALID,0.34082,
2006-05-22, 03:00:00,VALID,917.017,VALID,0,VALID,80.7049,VALID,-0.0339617,INVALID,0,VALID,60,VALID,0.15843,
2006-05-22, 03:01:00,VALID,917.014,VALID,0,VALID,80.6871,VALID,0.0169808,INVALID,0,VALID,60,VALID,0.168551,
2006-05-22, 03:02:00,VALID,917.009,VALID,0,VALID,80.6948,VALID,0.0509425,INVALID,0,VALID,60,VALID,0.159412,
2006-05-22, 03:03:00,VALID,916.993,VALID,0,VALID,80.5358,VALID,-0.0169808,INVALID,0,VALID,60,VALID,0.421512,
2006-05-22, 03:04:00,VALID,916.979,VALID,0,VALID,80.4112,VALID,0,VALID,-0.0016,VALID,60,VALID,0.547763,
2006-05-22, 03:05:00,VALID,916.963,VALID,0,VALID,80.4175,VALID,-0.0169808,VALID,-0.0016,VALID,61,VALID,0.531445,
2006-05-22, 03:06:00,VALID,916.96,VALID,0,VALID,80.5587,VALID,0,INVALID,0,VALID,61,VALID,0.421165,
2006-05-22, 03:07:00,VALID,916.96,VALID,0,VALID,80.682,VALID,-0.0169808,INVALID,0,VALID,61,VALID,0.191134,
2006-05-22, 03:08:00,VALID,916.955,VALID,0,VALID,80.8041,VALID,0,VALID,-0.0016,VALID,61,VALID,0.114702,
2006-05-22, 03:09:00,VALID,916.956,VALID,0,VALID,80.8461,VALID,0.0679233,INVALID,0,VALID,61,VALID,0.000520833,
2006-05-22, 03:10:00,VALID,916.963,VALID,0,VALID,80.8919,VALID,0,INVALID,0,VALID,61,VALID,0,
2006-05-22, 03:11:00,VALID,916.98,VALID,0,VALID,80.8817,VALID,-0.0169808,VALID,-0.0016,VALID,61,VALID,0,
2006-05-22, 03:12:00,VALID,916.989,VALID,0,VALID,80.8588,VALID,0.0339617,VALID,-0.0016,VALID,61,VALID,0,
2006-05-22, 03:13:00,VALID,916.984,VALID,0,VALID,80.8893,VALID,0.0169808,VALID,-0.0016,VALID,61,VALID,0,
2006-05-22, 03:14:00,VALID,916.982,VALID,0,VALID,80.9936,VALID,0,VALID,-0.0016,VALID,61,VALID,0,
2006-05-22, 03:15:00,VALID,916.987,VALID,0,VALID,81.0648,VALID,0.0339617,INVALID,0,VALID,18,VALID,0.155903,
2006-05-22, 03:16:00,VALID,916.983,VALID,0,VALID,80.8779,VALID,0.0339617,VALID,-0.0016,VALID,293,VALID,0.263263,
2006-05-22, 03:17:00,VALID,916.973,VALID,0,VALID,80.8791,VALID,0,INVALID,0,VALID,291,VALID,0,
2006-05-22, 03:18:00,VALID,916.974,VALID,0,VALID,80.8245,VALID,0.0169808,INVALID,0,VALID,291,VALID,0.109553,
2006-05-22, 03:19:00,VALID,916.97,VALID,0,VALID,80.8308,VALID,-0.0849042,INVALID,0,VALID,291,VALID,0.0502486,
2006-05-22, 03:20:00,VALID,916.965,VALID,0,VALID,80.771,VALID,-0.0169808,VALID,-0.0016,VALID,291,VALID,0.000181686,
2006-05-22, 03:21:00,VALID,916.979,VALID,0,VALID,80.7914,VALID,0.0509425,VALID,-0.0016,VALID,302,VALID,0.373785,
2006-05-22, 03:22:00,VALID,916.965,VALID,0,VALID,80.7075,VALID,0.0339617,VALID,-0.0016,VALID,252,VALID,0.266927,
2006-05-22, 03:23:00,VALID,916.962,VALID,0,VALID,80.6744,VALID,-0.0679233,INVALID,0,VALID,252,VALID,0.00390625,
2006-05-22, 03:24:00,VALID,916.936,VALID,0,VALID,80.5829,VALID,0,VALID,-0.0016,VALID,252,VALID,0.0085747,
2006-05-22, 03:25:00,VALID,916.923,VALID,0,VALID,80.607,VALID,0,VALID,-0.0016,VALID,227,VALID,0.421131,
2006-05-22, 03:26:00,VALID,916.906,VALID,0,VALID,80.5816,VALID,-0.0169808,VALID,-0.0016,VALID,217,VALID,0.332961,
2006-05-22, 03:27:00,VALID,916.898,VALID,0,VALID,80.5663,VALID,0,VALID,-0.0016,VALID,217,VALID,0.164648,
2006-05-22, 03:28:00,VALID,916.886,VALID,0,VALID,80.6261,VALID,0,VALID,-0.0016,VALID,217,VALID,0,
2006-05-22, 03:29:00,VALID,916.878,VALID,0,VALID,80.6706,VALID,0,VALID,-0.0016,VALID,217,VALID,0,
2006-05-22, 03:30:00,VALID,916.865,VALID,0,VALID,80.6172,VALID,0,INVALID,0,VALID,217,VALID,0,
2006-05-22, 03:31:00,VALID,916.858,VALID,0,VALID,80.6439,VALID,0,INVALID,0,VALID,215,VALID,0.395167,
2006-05-22, 03:32:00,VALID,916.866,VALID,0,VALID,80.6782,VALID,0,VALID,-0.0016,VALID,135,VALID,0.439787,
2006-05-22, 03:33:00,VALID,916.878,VALID,0,VALID,80.9567,VALID,0,INVALID,0,VALID,63,VALID,0.558222,
2006-05-22, 03:34:00,VALID,916.888,VALID,0,VALID,80.7787,VALID,0.696214,INVALID,0,VALID,38,VALID,0.494913,
2006-05-22, 03:35:00,VALID,916.899,VALID,0,VALID,81.2988,VALID,3.17542,INVALID,0,VALID,38,VALID,0.387355,
2006-05-22, 03:36:00,VALID,916.911,VALID,0,VALID,81.0495,VALID,-0.118866,VALID,-0.0016,VALID,38,VALID,0.400568,
2006-05-22, 03:37:00,VALID,916.922,VALID,0,VALID,80.7316,VALID,0,VALID,-0.0016,VALID,38,VALID,0.332541,
2006-05-22, 03:38:00,VALID,916.919,VALID,0,VALID,80.7978,VALID,0,VALID,-0.0016,VALID,38,VALID,0.313616,
2006-05-22, 03:39:00,VALID,916.92,VALID,0,VALID,80.7914,VALID,0,VALID,-0.0016,VALID,38,VALID,0.322856,
2006-05-22, 03:40:00,VALID,916.912,VALID,0,VALID,80.6121,VALID,0.0169808,INVALID,0,VALID,37,VALID,0.528088,
2006-05-22, 03:41:00,VALID,916.918,VALID,0,VALID,80.5803,VALID,-0.0339617,VALID,-0.0016,VALID,34,VALID,0.533288,
2006-05-22, 03:42:00,VALID,916.921,VALID,0,VALID,80.6032,VALID,0.0339617,VALID,-0.0016,VALID,35,VALID,0.582386,
2006-05-22, 03:43:00,VALID,916.914,VALID,0,VALID,80.6108,VALID,0.101885,INVALID,0,VALID,36,VALID,0.323583,
2006-05-22, 03:44:00,VALID,916.906,VALID,0,VALID,83.4961,VALID,0.835202,VALID,-0.0016,VALID,36,VALID,0.263951,